Miscellaneous Local Product
Issued by NWS Hastings, NE

Home | Current Version | Previous Version | Graphics & Text | Print | Product List | Glossary On
Versions: 1 2 3 4 5 6 7 8 9 10 11 12 13 14 15 16 17 18 19 20 21 22 23 24 25 26 27 28 29 30 31 32 33 34 35 36 37 38 39 40 41 42 43 44 45 46 47 48 49 50
000
AXUS43 KGID 230002
MISGRI

GID CWA HOURLY WEATHER ROUNDUP
NATIONAL WEATHER SERVICE HASTINGS NE
600 PM CST SAT NOV 22 2014

NOTE: "FAIR" INDICATES FEW OR NO CLOUDS BELOW 12,000 FEET WITH NO
SIGNIFICANT WEATHER AND/OR OBSTRUCTIONS TO VISIBILITY.

...SOUTH CENTRAL NEBRASKA...

CITY           SKY/WX    TMP DP  RH WIND       PRES   REMARKS
GRAND ISLAND   NOT AVBL
HASTINGS       CLEAR     51  36  56 S5        29.55F
KEARNEY        PTCLDY    46  32  57 CALM      29.58R
ORD            MOCLDY    47  27  45 S8        29.52S
YORK           CLEAR     48  41  76 S8        29.56F
AURORA         CLEAR     50  39  67 S7        29.56R
LEXINGTON      MOCLDY    50  31  48 SE7       29.53S
HOLDREGE       PTCLDY    51  33  49 S9        29.55S
HEBRON         CLEAR     55  49  81 S9        29.60F

...NEBRASKA PANHANDLE...

CITY           SKY/WX    TMP DP  RH WIND       PRES   REMARKS
CHADRON        CLOUDY    46  30  53 NW5       29.47S
ALLIANCE       CLOUDY    54  28  36 W23G36    29.53R
SCOTTSBLUFF    CLOUDY    52  31  44 W17G25    29.55S
SIDNEY         CLOUDY    47  18  31 NW9       29.56F

...WESTERN AND NORTH CENTRAL NEBRASKA...

CITY           SKY/WX    TMP DP  RH WIND       PRES   REMARKS
VALENTINE      CLOUDY    48  28  46 NW7       29.46S
AINSWORTH      CLOUDY    52  26  37 SW9       29.47S
ONEILL         CLOUDY    54  32  43 S14G20    29.48S
BROKEN BOW     MOCLDY    52  28  39 S12       29.53S
IMPERIAL       MOCLDY    49  13  23 N5        29.52S HAZE
NORTH PLATTE   MOCLDY    40  23  50 E6        29.52F
MCCOOK         PTCLDY    55  22  27 S10       29.51S

...EASTERN NEBRASKA...

CITY           SKY/WX    TMP DP  RH WIND       PRES   REMARKS
NORFOLK        MOCLDY    47  40  76 S16       29.53F
SO SIOUX CITY  PTCLDY    38  35  89 E9        29.56F WCI  31
TEKAMAH        PTCLDY    45  40  82 S10       29.58F
COLUMBUS       PTCLDY    39  36  87 CALM      29.58S
ALBION         PTCLDY    44  33  65 SE7       29.55F
OMAHA EPPLEY   CLOUDY    54  50  86 S16       29.61F
OFFUTT AFB     CLOUDY    54  51  90 SE12      29.62F
MILLARD        CLOUDY    55  49  81 S10       29.61F
LINCOLN        CLOUDY    55  50  83 S16       29.60F
NEBRASKA CITY  CLOUDY    55  55  99 S12       29.65F FOG
BEATRICE       CLOUDY    56  53  91 S13G23    29.63S
FALLS CITY     CLOUDY    57  54  89 S14       29.67F

...NORTHERN KANSAS...

CITY           SKY/WX    TMP DP  RH WIND       PRES   REMARKS
GOODLAND       PTCLDY    53  17  24 S10       29.55F
HILL CITY      CLEAR     56  29  35 S9        29.56F
NORTON         CLEAR     55  25  30 SE9       29.53S
PHILLIPSBURG   CLEAR     54  34  47 SE7       29.56S
SMITH CENTER   CLEAR     50  39  66 SE13      29.58S
BELOIT         PTCLDY    55  52  88 SE12G21   29.60R
HAYS           CLEAR     54  41  62 S12       29.60S
RUSSELL        PTCLDY    54  52  93 S21G30    29.60F
CONCORDIA      CLOUDY    57  54  89 S21G26    29.60F
SALINA         CLOUDY    60  54  80 S16       29.66F
TOPEKA         CLOUDY    57  53  86 S9        29.73F



USA.gov is the U.S. government's official web portal to all federal, state and local government web resources and services.